QPF
0.19 0.24 0.27 0.27 0.23 0.16 0.09 0.06 0.03 0.02 0.02 0.01 0.01 0.01 0.01 0.01 0.00 0.01 0.01 0.01 0.03 0.03 0.02 0.03 0.03 0.02 0.02 0.01 0.02 0.03 0.05 0.06 0.06 0.05 0.05 0.04 0.04 0.05 0.05 0.07 0.08 0.06 0.04
0.39 0.50 0.54 0.48 0.37 0.25 0.14 0.07 0.04 0.03 0.02 0.01 0.01 0.01 0.00 0.00 0.01 0.01 0.01 0.01 0.02 0.02 0.01 0.01 0.01 0.01 0.01 0.01 0.01 0.02 0.03 0.05 0.06 0.07 0.07 0.07 0.07 0.07 0.07 0.07 0.09 0.09 0.09
0.51 0.71 0.84 0.79 0.62 0.39 0.20 0.08 0.03 0.02 0.01 0.00 0.00 0.00 0.00 0.01 0.01 0.02 0.01 0.01 0.01 0.00 0.00 0.00 0.00 0.01 0.01 0.01 0.01 0.01 0.01 0.02 0.05 0.07 0.09 0.11 0.11 0.10 0.08 0.10 0.12 0.12 0.11
0.53 0.66 0.71 0.63 0.47 0.33 0.18 0.07 0.02 0.01 0.00 0.00 0.00 0.00 0.01 0.01 0.01 0.01 0.00 0.00 0.00 0.00 0.00 0.00 0.00 0.00 0.00 0.00 0.00 0.00 0.00 0.01 0.04 0.08 0.11 0.11 0.10 0.09 0.09 0.11 0.15 0.18 0.17
0.31 0.34 0.37 0.31 0.22 0.14 0.08 0.04 0.01 0.01 0.00 0.00 0.00 0.00 0.00 0.00 0.00 0.00 0.00 0.00 0.00 0.00 0.00 0.00 0.00 0.00 0.00 0.00 0.00 0.00 0.01 0.02 0.03 0.05 0.05 0.05 0.04 0.03 0.04 0.08 0.15 0.25 0.26
0.14 0.16 0.17 0.18 0.14 0.09 0.06 0.02 0.01 0.00 0.00 0.00 0.00 0.00 0.00 0.00 0.00 0.00 0.00 0.00 0.00 0.00 0.00 0.00 0.00 0.00 0.00 0.00 0.00 0.00 0.00 0.01 0.01 0.02 0.01 0.01 0.02 0.01 0.02 0.06 0.12 0.22 0.33
0.09 0.11 0.12 0.13 0.12 0.10 0.05 0.04 0.02 0.01 0.00 0.00 0.00 0.00 0.00 0.00 0.00 0.00 0.00 0.00 0.00 0.00 0.00 0.00 0.00 0.00 0.00 0.00 0.00 0.00 0.00 0.00 0.00 0.01 0.01 0.01 0.01 0.01 0.01 0.03 0.07 0.15 0.32
0.07 0.09 0.09 0.09 0.09 0.08 0.06 0.06 0.04 0.02 0.01 0.00 0.00 0.00 0.00 0.00 0.00 0.00 0.00 0.00 0.00 0.00 0.00 0.00 0.00 0.00 0.00 0.00 0.00 0.01 0.00 0.00 0.00 0.00 0.01 0.01 0.00 0.01 0.02 0.02 0.03 0.06 0.15
0.05 0.08 0.08 0.07 0.06 0.07 0.07 0.06 0.04 0.03 0.01 0.00 0.00 0.00 0.00 0.00 0.00 0.00 0.00 0.00 0.00 0.00 0.00 0.00 0.00 0.00 0.00 0.00 0.00 0.00 0.00 0.00 0.00 0.00 0.00 0.00 0.00 0.00 0.01 0.01 0.01 0.02 0.04
0.04 0.06 0.07 0.06 0.05 0.05 0.05 0.04 0.03 0.02 0.01 0.00 0.00 0.00 0.00 0.00 0.00 0.00 0.00 0.00 0.00 0.00 0.00 0.00 0.00 0.00 0.00 0.00 0.00 0.00 0.00 0.01 0.00 0.00 0.00 0.00 0.00 0.00 0.00 0.00 0.01 0.01 0.02
0.03 0.05 0.05 0.03 0.03 0.03 0.03 0.03 0.02 0.01 0.00 0.00 0.00 0.00 0.00 0.00 0.00 0.00 0.00 0.00 0.00 0.00 0.00 0.00 0.00 0.00 0.00 0.00 0.00 0.00 0.00 0.00 0.00 0.00 0.00 0.00 0.00 0.00 0.00 0.00 0.01 0.02 0.02
0.02 0.04 0.04 0.03 0.01 0.01 0.01 0.01 0.01 0.00 0.00 0.00 0.00 0.00 0.00 0.00 0.00 0.00 0.00 0.00 0.00 0.00 0.00 0.00 0.00 0.00 0.00 0.00 0.00 0.00 0.00 0.00 0.00 0.00 0.00 0.00 0.00 0.00 0.00 0.00 0.00 0.01 0.01
0.02 0.03 0.03 0.02 0.01 0.01 0.01 0.01 0.01 0.01 0.00 0.00 0.00 0.00 0.00 0.00 0.00 0.00 0.00 0.00 0.00 0.00 0.00 0.00 0.00 0.00 0.00 0.00 0.00 0.00 0.00 0.00 0.00 0.00 0.00 0.00 0.00 0.00 0.00 0.00 0.00 0.01 0.01
0.02 0.03 0.02 0.01 0.01 0.01 0.02 0.02 0.01 0.01 0.00 0.00 0.00 0.00 0.00 0.00 0.00 0.00 0.00 0.00 0.00 0.00 0.00 0.00 0.00 0.00 0.00 0.00 0.00 0.00 0.00 0.00 0.00 0.00 0.00 0.00 0.00 0.00 0.00 0.00 0.00 0.01 0.01
0.02 0.02 0.01 0.01 0.01 0.01 0.01 0.02 0.02 0.03 0.01 0.00 0.00 0.00 0.00 0.00 0.00 0.00 0.00 0.00 0.00 0.00 0.00 0.00 0.00 0.00 0.00 0.00 0.00 0.00 0.00 0.00 0.00 0.00 0.00 0.00 0.00 0.00 0.00 0.00 0.00 0.00 0.00
0.02 0.01 0.01 0.00 0.01 0.01 0.01 0.00 0.00 0.01 0.00 0.00 0.00 0.00 0.00 0.00 0.00 0.00 0.00 0.00 0.00 0.00 0.00 0.00 0.00 0.00 0.00 0.00 0.00 0.00 0.00 0.00 0.00 0.00 0.00 0.00 0.00 0.00 0.00 0.00 0.00 0.00 0.00
0.01 0.01 0.00 0.00 0.00 0.00 0.01 0.01 0.00 0.00 0.00 0.00 0.00 0.00 0.00 0.00 0.00 0.00 0.00 0.00 0.00 0.00 0.00 0.00 0.00 0.00 0.00 0.00 0.00 0.00 0.00 0.00 0.00 0.00 0.00 0.00 0.00 0.00 0.00 0.00 0.00 0.00 0.00
0.01 0.01 0.00 0.00 0.00 0.00 0.00 0.01 0.01 0.01 0.00 0.00 0.00 0.00 0.00 0.00 0.00 0.00 0.00 0.00 0.00 0.00 0.00 0.00 0.00 0.00 0.00 0.00 0.00 0.00 0.00 0.00 0.00 0.00 0.00 0.00 0.00 0.00 0.00 0.00 0.00 0.00 0.00
0.00 0.00 0.00 0.00 0.00 0.00 0.00 0.01 0.01 0.01 0.01 0.00 0.00 0.00 0.00 0.00 0.00 0.00 0.00 0.00 0.00 0.00 0.00 0.00 0.00 0.00 0.00 0.00 0.00 0.00 0.00 0.00 0.00 0.00 0.00 0.00 0.00 0.00 0.00 0.00 0.00 0.00 0.00
0.00 0.00 0.00 0.00 0.00 0.00 0.00 0.00 0.00 0.01 0.00 0.00 0.00 0.00 0.00 0.00 0.00 0.00 0.00 0.00 0.00 0.00 0.00 0.00 0.00 0.00 0.00 0.00 0.00 0.00 0.00 0.00 0.00 0.00 0.00 0.00 0.00 0.00 0.00 0.00 0.00 0.00 0.00
0.00 0.00 0.00 0.00 0.00 0.00 0.00 0.00 0.00 0.00 0.00 0.00 0.00 0.00 0.00 0.00 0.00 0.00 0.00 0.00 0.00 0.00 0.00 0.00 0.00 0.00 0.00 0.00 0.00 0.00 0.00 0.00 0.00 0.00 0.00 0.00 0.00 0.00 0.00 0.00 0.00 0.00 0.00
0.00 0.00 0.00 0.00 0.00 0.00 0.00 0.00 0.00 0.00 0.00 0.00 0.00 0.00 0.00 0.00 0.00 0.00 0.00 0.00 0.00 0.00 0.00 0.00 0.00 0.00 0.00 0.00 0.00 0.00 0.00 0.00 0.00 0.00 0.00 0.00 0.00 0.00 0.00 0.00 0.00 0.00 0.00
0.00 0.00 0.00 0.00 0.00 0.00 0.00 0.00 0.00 0.00 0.00 0.00 0.00 0.00 0.00 0.00 0.00 0.00 0.00 0.00 0.00 0.00 0.00 0.00 0.00 0.00 0.00 0.00 0.00 0.00 0.00 0.00 0.00 0.00 0.00 0.00 0.00 0.00 0.00 0.00 0.00 0.00 0.00
0.00 0.00 0.00 0.00 0.00 0.00 0.00 0.00 0.00 0.00 0.00 0.00 0.00 0.00 0.00 0.00 0.00 0.00 0.00 0.00 0.00 0.00 0.00 0.00 0.00 0.00 0.00 0.00 0.00 0.00 0.00 0.00 0.00 0.00 0.00 0.00 0.00 0.00 0.00 0.00 0.00 0.00 0.00
0.00 0.00 0.00 0.00 0.00 0.00 0.00 0.00 0.00 0.00 0.00 0.00 0.00 0.00 0.00 0.00 0.00 0.00 0.00 0.00 0.00 0.00 0.00 0.00 0.00 0.00 0.00 0.00 0.00 0.00 0.00 0.00 0.00 0.00 0.00 0.00 0.00 0.00 0.00 0.00 0.00 0.00 0.00
0.00 0.00 0.00 0.00 0.00 0.00 0.00 0.00 0.00 0.00 0.00 0.00 0.00 0.00 0.00 0.00 0.00 0.00 0.00 0.00 0.00 0.00 0.00 0.00 0.00 0.00 0.00 0.00 0.00 0.00 0.00 0.00 0.00 0.00 0.00 0.00 0.00 0.00 0.00 0.00 0.00 0.00 0.00
MSLP
1009.71 1009.76 1009.82 1009.88 1009.94 1009.99 1010.05 1010.10 1010.15 1010.21 1010.26 1010.30 1010.33 1010.35 1010.34 1010.32 1010.29 1010.26 1010.24 1010.22 1010.21 1010.20 1010.18 1010.15 1010.11 1010.04 1009.95 1009.84 1009.71 1009.57 1009.42 1009.26 1009.09 1008.91 1008.73 1008.55 1008.38 1008.23 1008.11 1008.04 1008.00 1007.99 1008.00
1009.85 1009.97 1010.10 1010.22 1010.33 1010.42 1010.48 1010.52 1010.55 1010.55 1010.54 1010.52 1010.50 1010.47 1010.44 1010.42 1010.40 1010.39 1010.40 1010.41 1010.42 1010.42 1010.40 1010.36 1010.28 1010.18 1010.06 1009.91 1009.75 1009.59 1009.43 1009.26 1009.10 1008.94 1008.77 1008.60 1008.43 1008.27 1008.13 1008.01 1007.92 1007.85 1007.80
1009.98 1010.16 1010.35 1010.53 1010.69 1010.82 1010.91 1010.96 1010.96 1010.94 1010.89 1010.83 1010.77 1010.71 1010.67 1010.64 1010.64 1010.66 1010.70 1010.74 1010.78 1010.80 1010.79 1010.74 1010.65 1010.52 1010.36 1010.18 1009.99 1009.80 1009.61 1009.44 1009.27 1009.10 1008.94 1008.76 1008.59 1008.41 1008.24 1008.09 1007.95 1007.83 1007.72
1010.04 1010.25 1010.48 1010.71 1010.92 1011.09 1011.21 1011.28 1011.30 1011.28 1011.23 1011.16 1011.09 1011.03 1010.98 1010.97 1010.99 1011.04 1011.11 1011.19 1011.26 1011.30 1011.30 1011.26 1011.17 1011.02 1010.84 1010.64 1010.42 1010.21 1010.00 1009.81 1009.62 1009.44 1009.26 1009.07 1008.88 1008.68 1008.48 1008.28 1008.10 1007.93 1007.78
1009.97 1010.19 1010.44 1010.69 1010.93 1011.14 1011.30 1011.42 1011.49 1011.51 1011.49 1011.45 1011.40 1011.36 1011.35 1011.36 1011.41 1011.48 1011.58 1011.69 1011.79 1011.86 1011.88 1011.85 1011.76 1011.62 1011.44 1011.22 1010.99 1010.76 1010.54 1010.32 1010.12 1009.92 1009.72 1009.51 1009.29 1009.05 1008.82 1008.58 1008.36 1008.16 1007.97
1009.77 1009.97 1010.20 1010.46 1010.72 1010.96 1011.17 1011.35 1011.48 1011.57 1011.63 1011.65 1011.67 1011.68 1011.71 1011.76 1011.84 1011.94 1012.06 1012.19 1012.30 1012.39 1012.43 1012.42 1012.35 1012.23 1012.05 1011.85 1011.62 1011.38 1011.15 1010.92 1010.69 1010.47 1010.24 1010.00 1009.75 1009.48 1009.21 1008.94 1008.69 1008.46 1008.25
1009.47 1009.63 1009.83 1010.07 1010.33 1010.60 1010.86 1011.10 1011.32 1011.50 1011.65 1011.77 1011.87 1011.96 1012.04 1012.14 1012.25 1012.37 1012.50 1012.63 1012.75 1012.85 1012.90 1012.90 1012.85 1012.75 1012.60 1012.41 1012.20 1011.97 1011.73 1011.49 1011.25 1011.00 1010.75 1010.47 1010.19 1009.90 1009.60 1009.30 1009.03 1008.78 1008.57
1009.14 1009.25 1009.41 1009.61 1009.85 1010.13 1010.43 1010.74 1011.04 1011.33 1011.59 1011.82 1012.02 1012.19 1012.35 1012.49 1012.62 1012.75 1012.88 1013.01 1013.11 1013.20 1013.25 1013.26 1013.22 1013.14 1013.02 1012.86 1012.67 1012.46 1012.23 1011.98 1011.73 1011.46 1011.18 1010.88 1010.57 1010.25 1009.93 1009.62 1009.33 1009.07 1008.86
1008.84 1008.90 1009.01 1009.18 1009.40 1009.68 1010.01 1010.37 1010.75 1011.13 1011.50 1011.84 1012.14 1012.40 1012.62 1012.81 1012.96 1013.10 1013.21 1013.31 1013.39 1013.45 1013.48 1013.49 1013.46 1013.40 1013.30 1013.17 1013.01 1012.81 1012.60 1012.36 1012.10 1011.82 1011.51 1011.19 1010.86 1010.52 1010.19 1009.87 1009.58 1009.32 1009.11
1008.61 1008.65 1008.73 1008.85 1009.05 1009.32 1009.66 1010.06 1010.50 1010.96 1011.42 1011.86 1012.25 1012.60 1012.88 1013.11 1013.29 1013.42 1013.51 1013.58 1013.62 1013.65 1013.65 1013.64 1013.61 1013.56 1013.48 1013.38 1013.24 1013.07 1012.87 1012.64 1012.38 1012.09 1011.78 1011.44 1011.09 1010.74 1010.40 1010.08 1009.79 1009.53 1009.32
1008.48 1008.51 1008.57 1008.67 1008.85 1009.10 1009.45 1009.86 1010.35 1010.86 1011.39 1011.91 1012.38 1012.80 1013.14 1013.40 1013.60 1013.72 1013.80 1013.83 1013.84 1013.83 1013.80 1013.77 1013.73 1013.69 1013.62 1013.54 1013.43 1013.28 1013.10 1012.89 1012.63 1012.34 1012.02 1011.68 1011.32 1010.96 1010.61 1010.28 1009.99 1009.73 1009.52
1008.39 1008.45 1008.51 1008.61 1008.77 1009.01 1009.35 1009.78 1010.28 1010.83 1011.41 1011.98 1012.52 1012.99 1013.38 1013.68 1013.89 1014.03 1014.09 1014.10 1014.07 1014.03 1013.97 1013.92 1013.87 1013.82 1013.77 1013.70 1013.61 1013.49 1013.34 1013.14 1012.90 1012.61 1012.29 1011.95 1011.58 1011.22 1010.87 1010.54 1010.24 1009.97 1009.75
1008.30 1008.40 1008.49 1008.60 1008.77 1009.01 1009.33 1009.76 1010.26 1010.84 1011.44 1012.05 1012.63 1013.15 1013.58 1013.92 1014.16 1014.30 1014.36 1014.36 1014.31 1014.24 1014.17 1014.09 1014.03 1013.98 1013.93 1013.88 1013.82 1013.73 1013.60 1013.43 1013.20 1012.94 1012.63 1012.28 1011.92 1011.56 1011.20 1010.86 1010.55 1010.28 1010.04
1008.13 1008.30 1008.44 1008.58 1008.76 1009.00 1009.33 1009.75 1010.25 1010.83 1011.45 1012.08 1012.69 1013.25 1013.72 1014.09 1014.36 1014.52 1014.59 1014.59 1014.54 1014.45 1014.36 1014.28 1014.20 1014.15 1014.11 1014.08 1014.04 1013.98 1013.88 1013.74 1013.55 1013.30 1013.02 1012.69 1012.34 1011.97 1011.61 1011.27 1010.94 1010.65 1010.39
1007.82 1008.07 1008.27 1008.47 1008.68 1008.93 1009.27 1009.68 1010.18 1010.76 1011.38 1012.03 1012.66 1013.24 1013.75 1014.15 1014.45 1014.64 1014.73 1014.74 1014.69 1014.60 1014.50 1014.41 1014.33 1014.28 1014.26 1014.24 1014.22 1014.19 1014.13 1014.03 1013.88 1013.68 1013.42 1013.12 1012.79 1012.44 1012.08 1011.73 1011.39 1011.08 1010.79
1007.35 1007.67 1007.95 1008.20 1008.46 1008.74 1009.09 1009.51 1010.01 1010.58 1011.21 1011.86 1012.50 1013.11 1013.64 1014.07 1014.40 1014.62 1014.73 1014.75 1014.71 1014.62 1014.53 1014.43 1014.36 1014.31 1014.30 1014.30 1014.31 1014.32 1014.30 1014.25 1014.15 1014.00 1013.79 1013.53 1013.23 1012.90 1012.55 1012.20 1011.86 1011.53 1011.22
1006.73 1007.12 1007.47 1007.78 1008.09 1008.41 1008.78 1009.22 1009.72 1010.30 1010.92 1011.57 1012.22 1012.83 1013.38 1013.84 1014.19 1014.43 1014.56 1014.60 1014.57 1014.49 1014.39 1014.30 1014.23 1014.20 1014.19 1014.22 1014.26 1014.31 1014.34 1014.34 1014.30 1014.21 1014.05 1013.85 1013.59 1013.30 1012.98 1012.64 1012.30 1011.97 1011.64
1005.99 1006.45 1006.85 1007.22 1007.58 1007.94 1008.35 1008.80 1009.31 1009.89 1010.51 1011.16 1011.81 1012.43 1012.98 1013.45 1013.81 1014.07 1014.21 1014.26 1014.24 1014.18 1014.09 1014.00 1013.94 1013.92 1013.93 1013.98 1014.06 1014.15 1014.24 1014.30 1014.32 1014.29 1014.20 1014.06 1013.86 1013.61 1013.33 1013.02 1012.69 1012.36 1012.03
1005.20 1005.70 1006.15 1006.56 1006.96 1007.37 1007.80 1008.27 1008.80 1009.37 1010.00 1010.64 1011.28 1011.90 1012.45 1012.92 1013.28 1013.54 1013.70 1013.76 1013.75 1013.70 1013.62 1013.55 1013.51 1013.50 1013.54 1013.62 1013.74 1013.87 1014.01 1014.13 1014.21 1014.25 1014.23 1014.15 1014.02 1013.83 1013.59 1013.32 1013.02 1012.71 1012.39
1004.41 1004.92 1005.39 1005.84 1006.27 1006.70 1007.16 1007.65 1008.19 1008.77 1009.39 1010.02 1010.66 1011.26 1011.80 1012.26 1012.62 1012.88 1013.04 1013.11 1013.12 1013.08 1013.03 1012.98 1012.97 1012.99 1013.06 1013.18 1013.34 1013.52 1013.71 1013.88 1014.03 1014.13 1014.18 1014.17 1014.09 1013.96 1013.78 1013.56 1013.30 1013.02 1012.71
1003.65 1004.15 1004.63 1005.09 1005.53 1005.98 1006.45 1006.96 1007.50 1008.08 1008.70 1009.32 1009.94 1010.52 1011.04 1011.49 1011.84 1012.10 1012.26 1012.35 1012.38 1012.37 1012.35 1012.34 1012.37 1012.43 1012.55 1012.72 1012.92 1013.15 1013.39 1013.62 1013.82 1013.98 1014.08 1014.13 1014.12 1014.05 1013.92 1013.75 1013.53 1013.28 1013.00
1002.93 1003.41 1003.87 1004.32 1004.76 1005.22 1005.69 1006.20 1006.75 1007.33 1007.93 1008.54 1009.14 1009.70 1010.20 1010.62 1010.96 1011.22 1011.39 1011.49 1011.55 1011.58 1011.61 1011.66 1011.74 1011.87 1012.05 1012.27 1012.53 1012.81 1013.10 1013.37 1013.62 1013.83 1013.98 1014.08 1014.12 1014.10 1014.02 1013.90 1013.72 1013.51 1013.26
1002.26 1002.69 1003.12 1003.54 1003.97 1004.41 1004.89 1005.40 1005.94 1006.51 1007.10 1007.70 1008.27 1008.80 1009.28 1009.68 1010.01 1010.26 1010.44 1010.57 1010.66 1010.74 1010.83 1010.95 1011.11 1011.31 1011.56 1011.86 1012.18 1012.52 1012.85 1013.17 1013.45 1013.70 1013.89 1014.02 1014.10 1014.12 1014.09 1014.01 1013.88 1013.70 1013.49
1001.61 1001.99 1002.37 1002.75 1003.15 1003.58 1004.05 1004.55 1005.09 1005.65 1006.23 1006.81 1007.36 1007.86 1008.31 1008.69 1009.00 1009.24 1009.43 1009.58 1009.71 1009.85 1010.02 1010.21 1010.46 1010.75 1011.09 1011.45 1011.84 1012.24 1012.62 1012.98 1013.30 1013.57 1013.78 1013.95 1014.05 1014.11 1014.12 1014.07 1013.98 1013.84 1013.66
1000.96 1001.28 1001.60 1001.95 1002.32 1002.73 1003.18 1003.68 1004.21 1004.77 1005.34 1005.89 1006.42 1006.90 1007.31 1007.67 1007.95 1008.19 1008.38 1008.55 1008.73 1008.93 1009.16 1009.44 1009.78 1010.16 1010.59 1011.04 1011.50 1011.95 1012.38 1012.77 1013.12 1013.41 1013.65 1013.83 1013.96 1014.04 1014.08 1014.07 1014.02 1013.92 1013.77
1000.29 1000.55 1000.82 1001.12 1001.46 1001.85 1002.30 1002.80 1003.33 1003.89 1004.45 1004.99 1005.49 1005.94 1006.33 1006.65 1006.91 1007.13 1007.33 1007.52 1007.73 1007.98 1008.28 1008.64 1009.06 1009.54 1010.05 1010.58 1011.11 1011.62 1012.10 1012.53 1012.90 1013.21 1013.46 1013.66 1013.81 1013.91 1013.97 1014.00 1013.98 1013.92 1013.82
Thickness
5662 5658 5656 5655 5653 5652 5650 5651 5652 5654 5656 5658 5659 5661 5663 5664 5668 5670 5675 5675 5675 5676 5676 5676 5676 5676 5678 5681 5682 5682 5682 5681 5679 5683 5683 5682 5680 5679 5681 5682 5682 5683 5684
5644 5641 5638 5637 5636 5634 5633 5635 5638 5641 5644 5647 5649 5652 5655 5657 5660 5663 5665 5665 5665 5665 5665 5665 5665 5667 5666 5669 5670 5672 5673 5672 5671 5671 5674 5674 5673 5672 5673 5673 5673 5674 5675
5634 5629 5625 5622 5621 5620 5618 5621 5625 5629 5633 5637 5640 5643 5646 5649 5651 5653 5654 5654 5654 5654 5653 5653 5654 5655 5655 5657 5659 5662 5664 5666 5665 5663 5664 5664 5665 5665 5665 5666 5666 5666 5667
5628 5623 5617 5613 5612 5611 5610 5612 5616 5621 5625 5628 5631 5634 5637 5640 5642 5643 5643 5642 5642 5641 5641 5642 5643 5643 5643 5645 5648 5650 5652 5654 5655 5655 5654 5655 5655 5657 5657 5656 5657 5658 5659
5624 5620 5616 5613 5609 5609 5607 5608 5611 5616 5619 5620 5623 5626 5629 5631 5633 5632 5632 5631 5630 5630 5630 5630 5628 5627 5626 5629 5634 5636 5639 5640 5643 5643 5643 5643 5643 5644 5645 5646 5648 5651 5652
5624 5620 5618 5614 5611 5609 5607 5607 5609 5611 5613 5614 5616 5618 5620 5620 5616 5619 5622 5621 5620 5620 5620 5620 5620 5619 5618 5617 5617 5617 5619 5624 5626 5628 5629 5628 5627 5631 5634 5636 5637 5639 5639
5624 5622 5619 5615 5612 5609 5607 5606 5606 5607 5607 5608 5610 5610 5609 5605 5605 5607 5609 5611 5610 5609 5609 5609 5611 5609 5610 5612 5609 5607 5608 5608 5608 5613 5613 5612 5617 5619 5622 5627 5626 5626 5625
5624 5622 5620 5616 5612 5608 5605 5604 5603 5603 5603 5603 5603 5602 5600 5595 5594 5596 5598 5600 5599 5598 5598 5598 5598 5597 5596 5598 5600 5599 5599 5598 5599 5601 5600 5600 5602 5605 5612 5618 5619 5621 5620
5625 5622 5620 5617 5613 5609 5605 5603 5601 5600 5599 5598 5597 5595 5592 5587 5585 5587 5590 5592 5590 5589 5589 5587 5588 5587 5581 5583 5589 5588 5588 5588 5586 5585 5584 5586 5588 5592 5597 5607 5610 5614 5613
5625 5622 5620 5617 5614 5610 5606 5603 5600 5597 5595 5593 5591 5590 5587 5584 5579 5580 5582 5589 5585 5585 5582 5581 5574 5573 5571 5572 5578 5578 5576 5576 5578 5580 5578 5579 5582 5584 5586 5589 5595 5598 5601
5625 5621 5618 5616 5613 5609 5604 5600 5597 5594 5591 5589 5586 5584 5582 5579 5575 5575 5576 5582 5582 5581 5581 5579 5572 5564 5563 5563 5564 5565 5562 5562 5570 5571 5571 5572 5573 5573 5575 5576 5577 5581 5584
5623 5620 5617 5613 5612 5607 5602 5598 5595 5591 5587 5584 5582 5579 5577 5575 5572 5570 5569 5570 5571 5573 5573 5572 5565 5557 5555 5554 5555 5552 5552 5555 5560 5560 5559 5558 5559 5559 5561 5563 5563 5566 5568
5621 5618 5615 5612 5609 5606 5601 5596 5593 5589 5590 5587 5583 5579 5576 5572 5566 5562 5563 5562 5562 5565 5564 5556 5553 5551 5548 5548 5544 5544 5547 5548 5547 5546 5545 5545 5545 5545 5548 5550 5554 5555 5560
5618 5615 5612 5609 5607 5604 5601 5597 5595 5592 5590 5586 5583 5579 5575 5570 5568 5564 5563 5560 5556 5558 5558 5550 5546 5544 5543 5540 5539 5540 5538 5534 5533 5533 5533 5533 5534 5535 5536 5537 5540 5543 5547
5615 5612 5610 5608 5606 5602 5599 5596 5594 5592 5591 5585 5582 5578 5573 5570 5565 5560 5563 5561 5560 5557 5553 5552 5550 5547 5544 5540 5536 5532 5529 5526 5525 5523 5522 5522 5523 5523 5524 5525 5525 5529 5532
5612 5610 5609 5607 5604 5601 5597 5591 5581 5583 5578 5576 5574 5573 5569 5564 5555 5552 5549 5548 5546 5545 5547 5550 5547 5543 5539 5535 5531 5527 5522 5517 5514 5514 5513 5511 5511 5512 5513 5514 5515 5516 5518
5610 5608 5607 5605 5602 5599 5596 5593 5586 5574 5568 5566 5565 5563 5560 5553 5549 5546 5543 5542 5541 5539 5546 5546 5542 5538 5534 5530 5525 5520 5515 5510 5505 5505 5503 5502 5501 5502 5502 5503 5503 5503 5505
5606 5604 5602 5601 5599 5597 5595 5592 5588 5582 5574 5568 5558 5554 5550 5546 5543 5541 5539 5537 5541 5540 5547 5543 5539 5534 5530 5525 5520 5515 5510 5506 5501 5498 5495 5493 5492 5493 5492 5492 5493 5490 5492
5603 5602 5598 5598 5596 5595 5593 5591 5588 5583 5578 5572 5564 5550 5544 5540 5537 5536 5535 5544 5548 5546 5545 5541 5538 5533 5528 5523 5517 5511 5506 5501 5495 5492 5489 5485 5484 5484 5483 5483 5484 5480 5481
5599 5597 5593 5594 5592 5591 5590 5588 5585 5581 5577 5573 5567 5560 5549 5544 5546 5543 5541 5547 5548 5546 5543 5540 5536 5532 5527 5522 5515 5509 5505 5499 5493 5490 5485 5480 5478 5476 5475 5474 5474 5474 5474
5597 5592 5586 5588 5589 5588 5586 5584 5582 5579 5576 5572 5569 5565 5556 5553 5554 5552 5550 5548 5547 5545 5542 5540 5537 5532 5528 5521 5516 5510 5503 5498 5492 5486 5481 5476 5472 5469 5467 5466 5465 5465 5464
5595 5592 5585 5585 5586 5584 5583 5581 5579 5576 5574 5570 5567 5561 5552 5554 5556 5555 5553 5550 5548 5545 5543 5539 5537 5534 5529 5524 5517 5510 5504 5497 5491 5484 5477 5471 5466 5463 5460 5458 5456 5455 5454
5594 5591 5586 5584 5584 5580 5578 5578 5577 5574 5572 5569 5567 5563 5555 5553 5554 5554 5553 5552 5550 5547 5544 5540 5536 5534 5530 5524 5516 5510 5504 5497 5489 5481 5474 5467 5461 5457 5453 5450 5447 5446 5445
5593 5591 5588 5585 5583 5581 5578 5577 5576 5573 5571 5569 5566 5564 5561 5556 5554 5554 5553 5552 5551 5548 5545 5541 5538 5534 5529 5523 5516 5509 5503 5495 5485 5478 5469 5463 5457 5451 5446 5442 5440 5437 5435
5594 5591 5589 5587 5585 5583 5580 5578 5576 5574 5571 5569 5567 5565 5563 5561 5558 5556 5554 5553 5551 5548 5545 5542 5538 5534 5530 5523 5517 5510 5500 5490 5481 5473 5465 5459 5452 5444 5439 5435 5432 5429 5427
5594 5593 5592 5590 5588 5585 5583 5580 5578 5575 5573 5570 5568 5566 5564 5562 5561 5559 5557 5554 5552 5549 5545 5543 5539 5535 5530 5524 5517 5507 5495 5486 5477 5468 5462 5456 5448 5440 5434 5430 5425 5422 5420